FW5816 Weather Reports


Display with metric or nautical units.
time (UTC)temp
F
wind
direction
speed
MPH
gust
MPH
rain 1hr
in
rain 24hr
in
rain mn
in
humidity
%
barometer
mb
20260831222521 94 121 3.0 6.0 0.00 0.00 0.00 57 1017.2
20260831222022 94 217 2.0 8.0 0.00 0.00 0.00 57 1017.3
20260831221539 94 217 3.0 8.0 0.00 0.00 0.00 57 1017.4
20260831221017 94 139 2.0 5.0 0.00 0.00 0.00 57 1017.4
20260831220517 93 198 1.0 4.0 0.00 0.00 0.00 57 1017.4
20260831220035 92 136 1.0 4.0 0.00 0.00 0.00 58 1017.5
20260831215516 92 133 1.0 4.0 0.00 0.00 0.00 59 1017.6
20260831215019 92 251 2.0 6.0 0.00 0.00 0.00 58 1017.7
20260831214543 92 273 1.0 7.0 0.00 0.00 0.00 58 1017.7
20260831214020 93 228 4.0 8.0 0.00 0.00 0.00 56 1017.7
20260831213520 93 194 3.0 8.0 0.00 0.00 0.00 56 1017.7
20260831213041 94 266 3.0 8.0 0.00 0.00 0.00 55 1017.7
20260831212520 94 248 2.0 7.0 0.00 0.00 0.00 56 1017.7
20260831212020 93 302 5.0 8.0 0.00 0.00 0.00 55 1017.8
20260831211537 93 292 4.0 10.0 0.00 0.00 0.00 55 1017.7
20260831211020 93 191 6.0 10.0 0.00 0.00 0.00 56 1017.8
20260831210520 94 283 1.0 7.0 0.00 0.00 0.00 55 1017.9
20260831210039 93 128 4.0 7.0 0.00 0.00 0.00 56 1017.8
20260831205520 93 134 2.0 7.0 0.00 0.00 0.00 56 1017.9
20260831205021 93 279 3.0 7.0 0.00 0.00 0.00 56 1018.0
20260831204551 93 250 3.0 10.0 0.00 0.00 0.00 56 1018.0
20260831204020 93 219 5.0 10.0 0.00 0.00 0.00 56 1018.0
20260831203517 93 282 4.0 8.0 0.00 0.00 0.00 55 1018.1
20260831203055 93 285 2.0 6.0 0.00 0.00 0.00 56 1018.1
20260831202519 92 266 2.0 6.0 0.00 0.00 0.00 57 1018.2
20260831202018 93 218 2.0 6.0 0.00 0.00 0.00 56 1018.2
20260831201539 92 146 1.0 10.0 0.00 0.00 0.00 58 1018.2
20260831201022 92 247 3.0 10.0 0.00 0.00 0.00 57 1018.4
20260831200515 93 240 5.0 10.0 0.00 0.00 0.00 56 1018.5
20260831200040 92 165 1.0 7.0 0.00 0.00 0.00 57 1018.5
20260831195520 91 185 2.0 8.0 0.00 0.00 0.00 60 1018.5
20260831195024 91 281 5.0 8.0 0.00 0.00 0.00 59 1018.7
20260831194541 92 293 2.0 5.0 0.00 0.00 0.00 58 1018.7
20260831194019 92 47 1.0 6.0 0.00 0.00 0.00 57 1018.7
20260831193526 92 338 2.0 6.0 0.00 0.00 0.00 58 1018.7
20260831193037 93 245 3.0 6.0 0.00 0.00 0.00 56 1018.9
20260831192519 92 283 3.0 8.0 0.00 0.00 0.00 59 1018.8
20260831192020 93 211 3.0 10.0 0.00 0.00 0.00 59 1018.9
20260831191538 92 248 4.0 10.0 0.00 0.00 0.00 59 1019.0
20260831191017 92 177 4.0 9.0 0.00 0.00 0.00 60 1019.1
20260831190520 91 185 4.0 10.0 0.00 0.00 0.00 60 1019.0
20260831190052 91 296 5.0 10.0 0.00 0.00 0.00 60 1019.1
20260831185523 91 318 2.0 10.0 0.00 0.00 0.00 59 1019.1
20260831185019 91 255 4.0 10.0 0.00 0.00 0.00 59 1019.2
20260831184539 91 270 3.0 11.0 0.00 0.00 0.00 61 1019.2
20260831184019 91 281 3.0 11.0 0.00 0.00 0.00 60 1019.1
20260831183521 92 224 3.0 11.0 0.00 0.00 0.00 62 1019.2
20260831183039 91 269 5.0 11.0 0.00 0.00 0.00 62 1019.3
20260831182521 91 231 3.0 9.0 0.00 0.00 0.00 62 1019.3
20260831182018 90 162 3.0 7.0 0.00 0.00 0.00 64 1019.5
20260831181549 89 286 4.0 6.0 0.00 0.00 0.00 64 1019.5
20260831181020 89 249 2.0 7.0 0.00 0.00 0.00 66 1019.5
20260831180517 88 293 3.0 8.0 0.00 0.00 0.00 64 1019.5
20260831180037 89 307 4.0 8.0 0.00 0.00 0.00 64 1019.5
20260831175517 89 237 3.0 10.0 0.00 0.00 0.00 63 1019.7
20260831175019 90 310 2.0 10.0 0.00 0.00 0.00 64 1019.6
20260831174543 90 280 2.0 9.0 0.00 0.00 0.00 63 1019.6
20260831174022 89 217 3.0 8.0 0.00 0.00 0.00 64 1019.6
20260831173520 89 282 4.0 11.0 0.00 0.00 0.00 64 1019.6
20260831173036 90 216 4.0 11.0 0.00 0.00 0.00 63 1019.8
20260831172519 90 238 5.0 11.0 0.00 0.00 0.00 62 1019.8
20260831172017 90 326 3.0 9.0 0.00 0.00 0.00 64 1019.8
20260831171536 90 276 3.0 11.0 0.00 0.00 0.00 64 1019.9
20260831171022 89 229 5.0 11.0 0.00 0.00 0.00 65 1019.9
20260831170519 90 216 3.0 9.0 0.00 0.00 0.00 64 1019.9
20260831170039 89 269 4.0 9.0 0.00 0.00 0.00 64 1020.0
20260831165524 90 216 2.0 9.0 0.00 0.00 0.00 65 1020.0
20260831165020 89 247 5.0 10.0 0.00 0.00 0.00 65 1020.0
20260831164538 89 195 5.0 10.0 0.00 0.00 0.00 64 1019.9
20260831164021 89 264 2.0 9.0 0.00 0.00 0.00 65 1020.2
20260831163520 89 267 4.0 12.0 0.00 0.00 0.00 65 1020.1
20260831163036 88 240 5.0 12.0 0.00 0.00 0.00 65 1020.2
20260831162521 88 270 2.0 13.0 0.00 0.00 0.00 67 1020.2
20260831162020 88 236 4.0 13.0 0.00 0.00 0.00 66 1020.1
20260831161538 88 223 5.0 12.0 0.00 0.00 0.00 66 1020.2
20260831161018 88 240 5.0 12.0 0.00 0.00 0.00 68 1020.1
20260831160518 88 205 5.0 12.0 0.00 0.00 0.00 66 1020.2
20260831160058 87 264 5.0 13.0 0.00 0.00 0.00 68 1020.2
20260831155520 87 291 6.0 14.0 0.00 0.00 0.00 68 1020.2
20260831155020 87 274 8.0 14.0 0.00 0.00 0.00 68 1020.2
20260831154604 87 233 5.0 11.0 0.00 0.00 0.00 68 1020.3
20260831154017 87 280 7.0 11.0 0.00 0.00 0.00 68 1020.2
20260831153517 86 299 3.0 11.0 0.00 0.00 0.00 69 1020.2
20260831153113 86 222 6.0 11.0 0.00 0.00 0.00 70 1020.2
20260831152517 86 305 5.0 10.0 0.00 0.00 0.00 70 1020.3
20260831152020 86 200 3.0 10.0 0.00 0.00 0.00 70 1020.2
20260831151536 86 276 3.0 7.0 0.00 0.00 0.00 70 1020.2
20260831151018 85 263 3.0 9.0 0.00 0.00 0.00 70 1020.3
20260831150520 85 287 3.0 9.0 0.00 0.00 0.00 70 1020.4
20260831150038 85 295 4.0 9.0 0.00 0.00 0.00 71 1020.4
20260831145519 85 276 5.0 11.0 0.00 0.00 0.00 70 1020.4
20260831145022 85 274 6.0 11.0 0.00 0.00 0.00 70 1020.4
20260831144537 85 269 4.0 10.0 0.00 0.00 0.00 72 1020.3
20260831144017 84 332 2.0 10.0 0.00 0.00 0.00 74 1020.3
20260831143517 84 162 5.0 10.0 0.00 0.00 0.00 73 1020.4
20260831143034 84 290 5.0 10.0 0.00 0.00 0.00 73 1020.3
20260831142518 84 283 4.0 10.0 0.00 0.00 0.00 73 1020.3
20260831142018 83 253 5.0 10.0 0.00 0.00 0.00 73 1020.2
20260831141542 83 321 4.0 8.0 0.00 0.00 0.00 74 1020.2
20260831141022 83 241 4.0 6.0 0.00 0.00 0.00 75 1020.2
20260831140521 83 297 3.0 6.0 0.00 0.00 0.00 76 1020.2
20260831140037 83 282 2.0 6.0 0.00 0.00 0.00 77 1020.1
20260831135519 82 297 2.0 8.0 0.00 0.00 0.00 76 1020.1
20260831135019 82 167 2.0 8.0 0.00 0.00 0.00 76 1020.2
20260831134538 82 185 1.0 6.0 0.00 0.00 0.00 77 1020.1
20260831134019 82 211 2.0 3.0 0.00 0.00 0.00 78 1020.2
20260831133519 82 238 2.0 3.0 0.00 0.00 0.00 77 1020.2
20260831133038 83 172 0.0 2.0 0.00 0.00 0.00 77 1020.2
20260831132520 82 0 0.0 2.0 0.00 0.00 0.00 78 1020.2
20260831132018 81 0 0.0 2.0 0.00 0.00 0.00 79 1020.1
20260831131538 81 0 0.0 2.0 0.00 0.00 0.00 80 1020.0
20260831131020 80 136 0.0 2.0 0.00 0.00 0.00 81 1020.1
20260831130519 79 136 1.0 2.0 0.00 0.00 0.00 81 1020.1
20260831130044 79 136 0.0 2.0 0.00 0.00 0.00 83 1020.0
20260831125520 78 129 0.0 2.0 0.00 0.00 0.00 84 1019.9
20260831125021 77 0 0.0 2.0 0.00 0.00 0.00 85 1020.0
20260831124537 76 0 0.0 2.0 0.00 0.00 0.00 86 1019.8
20260831124020 75 127 0.0 3.0 0.00 0.00 0.00 88 1019.9
20260831123519 75 125 0.0 3.0 0.00 0.00 0.00 89 1019.8
20260831123046 74 144 1.0 3.0 0.00 0.00 0.00 90 1019.7
20260831122524 73 129 0.0 1.0 0.00 0.00 0.00 92 1019.7
20260831122017 73 0 0.0 0.0 0.00 0.00 0.00 92 1019.6
20260831121541 72 0 0.0 0.0 0.00 0.00 0.00 92 1019.7
20260831121018 72 0 0.0 0.0 0.00 0.00 0.00 92 1019.6
20260831120519 72 0 0.0 0.0 0.00 0.00 0.00 92 1019.5
20260831120111 72 0 0.0 0.0 0.00 0.00 0.00 92 1019.5
20260831115524 72 0 0.0 0.0 0.00 0.00 0.00 92 1019.5
20260831115025 72 0 0.0 0.0 0.00 0.00 0.00 92 1019.4
20260831114536 72 0 0.0 0.0 0.00 0.00 0.00 92 1019.4
20260831114020 72 0 0.0 0.0 0.00 0.00 0.00 93 1019.3
20260831113517 71 0 0.0 1.0 0.00 0.00 0.00 93 1019.3
20260831113039 71 0 0.0 1.0 0.00 0.00 0.00 93 1019.2
20260831112518 71 0 0.0 0.0 0.00 0.00 0.00 93 1019.2
20260831112019 71 0 0.0 1.0 0.00 0.00 0.00 93 1019.2
20260831111545 71 0 0.0 1.0 0.00 0.00 0.00 93 1019.1
20260831111019 71 0 0.0 1.0 0.00 0.00 0.00 93 1019.1
20260831110517 71 0 0.0 0.0 0.00 0.00 0.00 92 1019.1
20260831110038 71 0 0.0 0.0 0.00 0.00 0.00 92 1018.9
20260831105518 71 0 0.0 0.0 0.00 0.00 0.00 92 1018.9
20260831105019 72 0 0.0 0.0 0.00 0.00 0.00 92 1018.9
20260831104539 72 0 0.0 0.0 0.00 0.00 0.00 92 1018.8
20260831104019 72 0 0.0 0.0 0.00 0.00 0.00 92 1018.7
20260831103519 72 0 0.0 0.0 0.00 0.00 0.00 92 1018.7
20260831103043 72 0 0.0 0.0 0.00 0.00 0.00 91 1018.6
20260831102517 72 0 0.0 0.0 0.00 0.00 0.00 91 1018.6
20260831102019 72 0 0.0 0.0 0.00 0.00 0.00 91 1018.5
20260831101538 72 0 0.0 0.0 0.00 0.00 0.00 91 1018.5
20260831101018 73 0 0.0 0.0 0.00 0.00 0.00 90 1018.4
20260831100518 73 0 0.0 0.0 0.00 0.00 0.00 90 1018.4
20260831100043 73 0 0.0 1.0 0.00 0.00 0.00 90 1018.3
20260831095520 73 129 0.0 1.0 0.00 0.00 0.00 90 1018.2
20260831095017 73 0 0.0 1.0 0.00 0.00 0.00 90 1018.2
20260831094535 73 0 0.0 1.0 0.00 0.00 0.00 89 1018.1
20260831094022 73 0 0.0 0.0 0.00 0.00 0.00 89 1018.1
20260831093520 73 0 0.0 1.0 0.00 0.00 0.00 89 1018.1
20260831093038 73 0 0.0 1.0 0.00 0.00 0.00 89 1018.1
20260831092518 73 0 0.0 1.0 0.00 0.00 0.00 89 1018.0
20260831092018 73 0 0.0 1.0 0.00 0.00 0.00 89 1018.0
20260831091537 73 0 0.0 1.0 0.00 0.00 0.00 89 1018.0
20260831091020 73 0 0.0 1.0 0.00 0.00 0.00 89 1018.0
20260831090522 73 0 0.0 1.0 0.00 0.00 0.00 89 1017.9
20260831090036 73 0 0.0 1.0 0.00 0.00 0.00 89 1017.9
20260831085520 73 0 0.0 2.0 0.00 0.00 0.00 89 1017.9
20260831085020 73 0 0.0 3.0 0.00 0.00 0.00 90 1017.8
20260831084540 73 0 1.0 3.0 0.00 0.00 0.00 90 1017.7
20260831084019 73 0 0.0 3.0 0.00 0.00 0.00 90 1017.6
20260831083519 73 136 1.0 2.0 0.00 0.00 0.00 90 1017.6
20260831083041 73 0 0.0 1.0 0.00 0.00 0.00 90 1017.7
20260831082518 73 127 0.0 1.0 0.00 0.00 0.00 90 1017.7
20260831082016 73 0 0.0 1.0 0.00 0.00 0.00 90 1017.8
20260831081545 73 0 0.0 1.0 0.00 0.00 0.00 90 1017.8
20260831081017 73 0 0.0 1.0 0.00 0.00 0.00 90 1017.7
20260831080517 73 0 0.0 1.0 0.00 0.00 0.00 89 1017.7
20260831080036 73 0 0.0 1.0 0.00 0.00 0.00 89 1017.7
20260831075519 73 127 0.0 1.0 0.00 0.00 0.00 89 1017.7
20260831075020 73 0 0.0 1.0 0.00 0.00 0.00 88 1017.8
20260831074538 73 0 0.0 0.0 0.00 0.00 0.00 89 1017.7
20260831074018 73 0 0.0 0.0 0.00 0.00 0.00 89 1017.9
20260831073517 73 0 0.0 0.0 0.00 0.00 0.00 89 1017.8
20260831073036 73 0 0.0 0.0 0.00 0.00 0.00 88 1017.9
20260831072519 73 0 0.0 0.0 0.00 0.00 0.00 88 1017.8
20260831072017 73 0 0.0 0.0 0.00 0.00 0.00 88 1017.9
20260831071537 73 0 0.0 0.0 0.00 0.00 0.00 88 1017.8
20260831071021 74 0 0.0 0.0 0.00 0.00 0.00 87 1018.0
20260831070517 74 0 0.0 0.0 0.00 0.00 0.00 87 1018.0
20260831070105 74 0 0.0 0.0 0.00 0.00 0.00 87 1018.0
20260831065522 74 0 0.0 0.0 0.00 0.00 0.00 87 1018.0
20260831065018 74 0 0.0 0.0 0.00 0.00 0.00 87 1018.0
20260831064535 74 0 0.0 0.0 0.00 0.00 0.00 87 1018.0
20260831064017 74 0 0.0 1.0 0.00 0.00 0.00 87 1018.1
20260831063520 74 0 0.0 1.0 0.00 0.00 0.00 87 1018.1
20260831063036 74 0 0.0 1.0 0.00 0.00 0.00 87 1018.2
20260831062524 74 0 0.0 0.0 0.00 0.00 0.00 86 1018.2
20260831062020 74 0 0.0 0.0 0.00 0.00 0.00 86 1018.2
20260831061538 74 0 0.0 0.0 0.00 0.00 0.00 86 1018.2
20260831061018 74 0 0.0 1.0 0.00 0.00 0.00 86 1018.3
20260831060518 75 0 0.0 1.0 0.00 0.00 0.00 85 1018.3
20260831060047 75 127 0.0 1.0 0.00 0.00 0.00 85 1018.3
20260831055518 75 0 0.0 1.0 0.00 0.00 0.00 85 1018.4
20260831055023 75 0 0.0 1.0 0.00 0.00 0.00 85 1018.3
20260831054536 75 0 0.0 1.0 0.00 0.00 0.00 85 1018.2
20260831054019 75 0 0.0 0.0 0.00 0.00 0.00 85 1018.3
20260831053518 75 0 0.0 0.0 0.00 0.00 0.00 84 1018.3
20260831053038 75 0 0.0 0.0 0.00 0.00 0.00 84 1018.3
20260831052520 75 0 0.0 0.0 0.00 0.00 0.00 84 1018.2
20260831052019 75 0 0.0 0.0 0.00 0.00 0.00 84 1018.2
20260831051549 75 0 0.0 2.0 0.00 0.00 0.00 84 1018.3
20260831051016 75 0 0.0 2.0 0.00 0.00 0.00 84 1018.3
20260831050516 75 0 0.0 1.0 0.00 0.00 0.00 85 1018.3
20260831050039 75 0 0.0 0.0 0.00 0.00 0.00 85 1018.2
20260831045519 75 0 0.0 0.0 0.00 0.00 0.00 85 1018.4
20260831045017 75 0 0.0 0.0 0.00 0.00 0.00 85 1018.2
20260831044539 76 0 0.0 0.0 0.00 0.00 0.00 85 1018.4
20260831044018 76 0 0.0 0.0 0.00 0.00 0.00 85 1018.3
20260831043520 76 0 0.0 0.0 0.00 0.00 0.00 84 1018.5
20260831043040 76 0 0.0 0.0 0.00 0.00 0.00 84 1018.4
20260831042517 76 0 0.0 0.0 0.00 0.00 0.00 84 1018.5
20260831042020 76 0 0.0 0.0 0.00 0.00 0.00 83 1018.4
20260831041536 76 0 0.0 0.0 0.00 0.00 0.00 83 1018.5
20260831041024 76 0 0.0 0.0 0.00 0.00 0.00 83 1018.5
20260831040520 76 0 0.0 0.0 0.00 0.00 0.00 83 1018.3
20260831040046 76 0 0.0 0.0 0.00 0.00 0.00 83 1018.4
20260831035518 76 0 0.0 0.0 0.00 0.00 0.00 83 1018.2
20260831035017 76 0 0.0 0.0 0.00 0.00 0.00 83 1018.3
20260831034536 76 0 0.0 0.0 0.00 0.00 0.00 83 1018.2
20260831034020 77 0 0.0 0.0 0.00 0.00 0.00 83 1018.2
20260831033517 77 0 0.0 0.0 0.00 0.00 0.00 82 1018.3
20260831033039 77 0 0.0 0.0 0.00 0.00 0.00 82 1018.2
20260831032519 77 0 0.0 0.0 0.00 0.00 0.00 82 1018.3
20260831032019 77 0 0.0 0.0 0.00 0.00 0.00 81 1018.3
20260831031535 78 0 0.0 0.0 0.00 0.00 0.00 81 1018.3
20260831031017 78 0 0.0 0.0 0.00 0.00 0.00 80 1018.3
20260831030518 78 0 0.0 0.0 0.00 0.00 0.00 80 1018.4
20260831030037 78 0 0.0 0.0 0.00 0.00 0.00 79 1018.4
20260831025518 78 0 0.0 0.0 0.00 0.00 0.00 79 1018.4
20260831025020 78 0 0.0 0.0 0.00 0.00 0.00 79 1018.5
20260831024538 78 0 0.0 0.0 0.00 0.00 0.00 79 1018.4
20260831024020 78 0 0.0 0.0 0.00 0.00 0.00 80 1018.4
20260831023520 78 0 0.0 0.0 0.00 0.00 0.00 80 1018.4
20260831023041 79 0 0.0 1.0 0.00 0.00 0.00 80 1018.3
20260831022517 79 0 0.0 1.0 0.00 0.00 0.00 80 1018.4
20260831022016 79 0 0.0 1.0 0.00 0.00 0.00 81 1018.3
20260831021550 79 122 0.0 1.0 0.00 0.00 0.00 81 1018.3
20260831021018 79 122 0.0 1.0 0.00 0.00 0.00 82 1018.2
20260831020520 79 122 0.0 4.0 0.00 0.00 0.00 82 1018.3
20260831020038 79 122 1.0 4.0 0.00 0.00 0.00 81 1018.2
20260831015524 79 75 2.0 4.0 0.00 0.00 0.00 79 1018.2
20260831015019 80 93 1.0 2.0 0.00 0.00 0.00 77 1018.2
20260831014535 80 0 0.0 0.0 0.00 0.00 0.00 76 1018.1
20260831014019 80 0 0.0 1.0 0.00 0.00 0.00 76 1018.1
20260831013517 80 0 0.0 1.0 0.00 0.00 0.00 75 1018.0
20260831013040 81 0 0.0 1.0 0.00 0.00 0.00 74 1017.9
20260831012518 81 0 0.0 0.0 0.00 0.00 0.00 73 1017.9
20260831012019 81 0 0.0 0.0 0.00 0.00 0.00 72 1017.9
20260831011540 81 0 0.0 0.0 0.00 0.00 0.00 71 1017.8
20260831011018 82 0 0.0 0.0 0.00 0.00 0.00 69 1017.7
20260831010517 82 0 0.0 0.0 0.00 0.00 0.00 69 1017.6
20260831010106 82 0 0.0 0.0 0.00 0.00 0.00 68 1017.7
20260831005519 83 0 0.0 0.0 0.00 0.00 0.00 67 1017.6
20260831005018 83 0 0.0 0.0 0.00 0.00 0.00 66 1017.5
20260831004547 84 0 0.0 0.0 0.00 0.00 0.00 65 1017.5
20260831004016 84 0 0.0 0.0 0.00 0.00 0.00 65 1017.4
20260831003519 85 0 0.0 0.0 0.00 0.00 0.00 62 1017.4
20260831003040 86 0 0.0 1.0 0.00 0.00 0.00 59 1017.3
20260831002519 86 0 0.0 1.0 0.00 0.00 0.00 59 1017.4
20260831002018 87 244 0.0 1.0 0.00 0.00 0.00 59 1017.3
20260831001552 87 0 0.0 1.0 0.00 0.00 0.00 58 1017.4
20260831001023 87 0 0.0 1.0 0.00 0.00 0.00 58 1017.3
20260831000518 88 0 0.0 1.0 0.00 0.00 0.00 57 1017.3
20260831000040 88 0 0.0 1.0 0.00 0.00 0.00 57 1017.5
20260830235520 90 245 0.0 1.0 0.00 0.00 0.00 55 1017.3
20260830235019 90 0 0.0 1.0 0.00 0.00 0.00 54 1017.3
20260830234540 91 242 0.0 1.0 0.00 0.00 0.00 53 1017.2
20260830234021 91 241 0.0 1.0 0.00 0.00 0.00 52 1017.2
20260830233520 91 0 0.0 4.0 0.00 0.00 0.00 53 1017.2
20260830233036 90 0 1.0 4.0 0.00 0.00 0.00 53 1017.3
20260830232522 90 0 0.0 3.0 0.00 0.00 0.00 53 1017.3
20260830232020 90 275 1.0 6.0 0.00 0.00 0.00 52 1017.2
20260830231536 91 216 2.0 6.0 0.00 0.00 0.00 52 1017.3
20260830231019 92 285 2.0 4.0 0.00 0.00 0.00 50 1017.3
20260830230519 92 270 1.0 5.0 0.00 0.00 0.00 52 1017.2
20260830230047 93 139 2.0 5.0 0.00 0.00 0.00 49 1017.2
20260830225518 94 264 0.0 3.0 0.00 0.00 0.00 47 1017.3
20260830225019 94 278 0.0 3.0 0.00 0.00 0.00 49 1017.3
20260830224547 93 278 0.0 4.0 0.00 0.00 0.00 50 1017.2
20260830224020 93 176 1.0 4.0 0.00 0.00 0.00 50 1017.1
20260830223523 93 248 1.0 4.0 0.00 0.00 0.00 51 1017.2
20260830223035 94 278 0.0 4.0 0.00 0.00 0.00 52 1017.2